Location: Castiglione Fibocchi
(43.5333°N, 11.7667°E)
Time: 14:04:08
(UTC+00:00)

SeaSat 1 - Pass Details

Date: 15 August 2020
Orbit: 744 x 748 km, 108.0° (Epoch: 23 September)

Event Time Altitude Azimuth Distance (km) Brightness Sun altitude
Rises 02:30:33 0° 39° (NE) 3,200 7.3 -17.6°
Reaches altitude 10° 02:33:15 10° 53° (NE) 2,271 6.3 -17.2°
Maximum altitude 02:37:12 24° 107° (ESE) 1,519 4.4 -16.7°
Drops below altitude 10° 02:41:09 10° 160° (SSE) 2,259 4.7 -16.1°
Enters shadow 02:43:08 - 172° (S) 2,932 5.2 -15.8°
